Regional Weather Roundup
Issued by NWS Cleveland, OH

Current Version | Previous Version | Text Only | Print | Product List | Glossary On
Versions: 1 2 3 4 5 6 7 8 9 10 11 12 13 14 15 16 17 18 19 20 21 22 23 24 25 26 27 28 29 30 31 32 33 34 35 36 37 38 39 40 41 42 43 44 45 46 47 48 49 50
000
ASUS41 KCLE 120002
RWRCLE
OHIO REGIONAL WEATHER ROUNDUP
NATIONAL WEATHER SERVICE CLEVELAND, OH
700 PM EST MON DEC 11 2017

NOTE: "FAIR" INDICATES FEW OR NO CLOUDS BELOW 12,000 FEET WITH NO
SIGNIFICANT WEATHER AND/OR OBSTRUCTIONS TO VISIBILITY.

OHZ001>008-015>018-024>027-034-035-043-044-120100-
   NORTHWEST OHIO

CITY           SKY/WX    TMP DP  RH WIND       PRES   REMARKS
DEFIANCE       CLOUDY    31  25  78 E3        29.73F
FINDLAY        CLOUDY    33  24  69 S10       29.72F WCI  25
TOLEDO EXPRESS PTCLDY    32  26  78 S3        29.73F
TOLEDO EXEC    CLOUDY    33  24  69 SE5       29.75F WCI  29
LIMA           PTCLDY    33  27  78 S10       29.71F WCI  25
$$

OHZ009>014-019>023-028>033-038-089-120100-
   NORTHEAST OHIO

CITY           SKY/WX    TMP DP  RH WIND       PRES   REMARKS
CLE-HOPKINS    CLOUDY    32  25  75 S9        29.79F WCI  24
CLE-LAKEFRONT  FLURRIES  31  25  78 VRB7      29.77F WCI  24
CUY CO. ARPT   CLOUDY    30  23  74 S16       29.77F WCI  19
LORAIN-ELYRIA  CLOUDY    32  20  61 S12       29.76F WCI  23
ASHTABULA      LGT SNOW  28  25  88 SE7       29.80F FOG     WCI  21
AKRON-CANTON   CLOUDY    32  21  64 SE8       29.77F WCI  25
WOOSTER        CLOUDY    30  23  75 SE6       29.77F WCI  24
MANSFIELD      PTCLDY    32  23  69 S12       29.74F WCI  23
YOUNGSTOWN     FLURRIES  29  26  89 SE7       29.77F WCI  22
$$

OHZ042-051>053-060>062-070>072-077>081-120100-
  SOUTHWEST OHIO

CITY           SKY/WX    TMP DP  RH WIND       PRES   REMARKS
CINC-COVINGTON CLOUDY    41  29  62 S7        29.70F
CINC-LUNKEN    PTCLDY    37  29  72 CALM      29.74F
HAMILTON       PTCLDY    37  29  72 E5        29.72F
DAYTON         CLOUDY    36  29  75 SE10      29.71F
WRIGHT-PAT AFB CLOUDY    37  28  71 SE5       29.72F
DAYTON GENERAL CLOUDY    40  28  62 SE10      29.70F
WILMINGTON     CLOUDY    35  30  82 SE7       29.72F WCI  29
$$

OHZ036-037-039>041-045>050-054>059-063>069-073>076-082>088-120100-
  CENTRAL AND SOUTHEAST OHIO

CITY           SKY/WX    TMP DP  RH WIND       PRES   REMARKS
COLUMBUS       CLOUDY    36  26  67 SE7       29.76F
OSU AIRPORT    PTCLDY    36  27  69 SE6       29.76F
BOLTON FIELD   CLEAR     36  27  69 SE3       29.77F
RICKENBACK AFB MOCLDY    33  27  80 E5        29.77F WCI  28
NEWARK         CLEAR     31  23  72 SE6       29.76F WCI  25
MARION         CLOUDY    32  25  75 S7        29.75F WCI  26
LANCASTER      PTCLDY    31  26  82 NE3       29.77F
ZANESVILLE     CLEAR     32  22  66 CALM      29.79F
NEW PHILLY     NOT AVBL
$$




USA.gov is the U.S. government's official web portal to all federal, state and local government web resources and services.